Date String (YYYY-MM-DD hh:mm:ss) UTC,Instrument flags,absolute air pressure of the measurement (hPa),sample flow rate (lpm),inlet stack bypass flow (lpm),air temperature of the measurement (°C),ambient temperature measured by the external sensor (°C),aerosol sample conditioner tube jacket temperature (°C),OPC LED temperature (°C),internal box temperature (°C),relative humidity of the measurement (%),span deviation,mass concentration of particles derived from Lorenz-Mie calculation of OPC scattering (μg/m³),mass concentration of particles derived from Lorenz-Mie calculation of OPC scattering (μg/m³),mass concentration of particles derived from Lorenz-Mie calculation of OPC scattering (μg/m³)
DateTimeUTC,F1_M11,P_M11,Q1_M11,Q2_M11,T1_M11,T2_M11,T3_M11,T4_M11,T5_M11,U1_M11,ZSPAN_M11,X2_M11,X0_M11,X1_M11
2024-01-24 13:00:00,SystemResetWarning,0826.3,5.00,000.00,021.3,020.3,000.0,029.8,022.5,18.0,0003.6,0006.27,0009.48,0005.92
2024-01-24 13:01:00,SystemResetWarning,0826.2,5.01,000.00,021.3,020.3,000.0,029.7,022.5,18.1,0003.1,0006.26,0009.52,0005.90
2024-01-24 13:02:00,SystemResetWarning,0826.3,5.00,000.00,021.2,020.2,000.0,029.7,022.5,17.9,0000.0,0006.25,0009.59,0005.87
2024-01-24 13:03:00,SystemResetWarning,0826.2,5.00,000.00,021.2,020.2,000.0,029.7,022.5,17.5,0000.0,0006.27,0009.02,0005.92
2024-01-24 13:04:00,SystemResetWarning,0826.3,5.00,000.00,021.2,020.2,000.0,029.7,022.5,17.2,0000.0,0006.32,0009.11,0005.97
2024-01-24 13:05:00,SystemResetWarning,0826.4,5.00,000.00,021.2,020.2,000.0,029.7,022.5,17.1,0000.0,0006.43,0009.42,0006.11
2024-01-24 13:06:00,SystemResetWarning,0826.4,5.00,000.00,021.2,020.2,000.0,029.7,022.5,17.2,0000.0,0006.58,0009.47,0006.27
2024-01-24 13:07:00,SystemResetWarning,0826.4,5.00,000.00,021.2,020.2,000.0,029.7,022.5,17.2,0002.4,0006.78,0009.73,0006.45
2024-01-24 13:08:00,SystemResetWarning,0826.4,5.00,000.00,021.2,020.2,000.0,029.6,022.6,17.1,0002.4,0006.96,0010.57,0006.62
2024-01-24 13:09:00,SystemResetWarning,0826.4,5.00,000.00,021.2,020.3,000.0,029.6,022.6,17.0,0002.6,0007.17,0010.77,0006.83
2024-01-24 13:10:00,SystemResetWarning,0826.4,5.00,000.00,021.2,020.3,000.0,029.6,022.6,16.9,0002.9,0007.38,0011.06,0007.02
2024-01-24 13:11:00,SystemResetWarning,0826.4,5.00,000.00,021.2,020.3,000.0,029.6,022.6,16.7,0002.4,0007.44,0011.15,0007.07
2024-01-24 13:12:00,SystemResetWarning,0826.4,5.00,000.00,021.2,020.3,000.0,029.6,022.6,16.5,0002.1,0007.45,0011.08,0007.10
2024-01-24 13:13:00,SystemResetWarning,0826.4,5.00,000.00,021.2,020.3,000.0,029.6,022.6,16.4,0001.8,0007.46,0011.07,0007.12
2024-01-24 13:14:00,SystemResetWarning,0826.4,5.00,000.00,021.2,020.2,000.0,029.6,022.6,16.4,0002.2,0007.47,0011.31,0007.11
2024-01-24 13:15:00,SystemResetWarning,0826.5,5.00,000.00,021.2,020.2,000.0,029.6,022.6,16.4,0002.0,0007.42,0011.21,0007.06
2024-01-24 13:16:00,SystemResetWarning,0826.5,5.00,000.00,021.2,020.2,000.0,029.6,022.6,16.3,0001.6,0007.30,0010.86,0006.94
2024-01-24 13:17:00,SystemResetWarning,0826.5,5.00,000.00,021.2,020.2,000.0,029.6,022.6,16.4,0001.1,0007.18,0010.76,0006.81
2024-01-24 13:18:00,SystemResetWarning,0826.6,5.00,000.00,021.2,020.2,000.0,029.6,022.6,16.4,0001.3,0007.05,0010.59,0006.70
2024-01-24 13:19:00,SystemResetWarning,0826.5,5.00,000.00,021.2,020.3,000.0,029.6,022.6,16.4,0001.2,0007.05,0009.88,0006.71
2024-01-24 13:20:00,SystemResetWarning,0826.6,5.00,000.00,021.2,020.3,000.0,029.6,022.6,16.3,0000.9,0007.12,0009.99,0006.76
2024-01-24 13:21:00,SystemResetWarning,0826.6,5.00,000.00,021.2,020.3,000.0,029.6,022.6,16.3,0000.7,0007.19,0010.46,0006.81
2024-01-24 13:22:00,SystemResetWarning,0826.6,5.00,000.00,021.2,020.3,000.0,029.6,022.6,16.4,0001.1,0007.21,0010.50,0006.87
2024-01-24 13:23:00,SystemResetWarning,0826.7,5.00,000.00,021.2,020.3,000.0,029.6,022.6,16.9,0001.3,0007.28,0010.59,0006.93
2024-01-24 13:24:00,SystemResetWarning,0826.6,5.00,000.00,021.2,020.3,000.0,029.6,022.6,17.4,0001.5,0007.39,0010.74,0007.01
2024-01-24 13:25:00,SystemResetWarning,0826.6,5.00,000.00,021.2,020.3,000.0,029.6,022.6,17.6,0001.6,0007.43,0010.67,0007.02
2024-01-24 13:26:00,SystemResetWarning,0826.6,5.00,000.00,021.2,020.3,000.0,029.6,022.6,17.5,0001.8,0007.39,0010.59,0006.96
2024-01-24 13:27:00,SystemResetWarning,0826.5,5.00,000.00,021.2,020.3,000.0,029.6,022.6,17.4,0002.3,0007.34,0010.57,0006.91
2024-01-24 13:28:00,SystemResetWarning,0826.5,5.00,000.00,021.2,020.3,000.0,029.6,022.6,17.2,0002.8,0007.29,0010.53,0006.86
2024-01-24 13:29:00,SystemResetWarning,0826.5,5.00,000.00,021.2,020.2,000.0,029.6,022.6,17.1,0002.8,0007.26,0010.70,0006.82
2024-01-24 13:30:00,SystemResetWarning,0826.5,5.00,000.00,021.2,020.2,000.0,029.6,022.6,17.2,0002.6,0007.17,0010.68,0006.75
2024-01-24 13:31:00,SystemResetWarning,0826.6,5.00,000.00,021.2,020.2,000.0,029.6,022.6,17.2,0002.5,0007.01,0010.60,0006.58
2024-01-24 13:32:00,SystemResetWarning,0826.6,5.00,000.00,021.2,020.2,000.0,029.6,022.6,17.5,0002.1,0006.81,0010.17,0006.39
2024-01-24 13:33:00,SystemResetWarning,0826.6,5.00,000.00,021.2,020.2,000.0,029.6,022.6,17.7,0001.9,0006.69,0009.98,0006.25
2024-01-24 13:34:00,SystemResetWarning,0826.6,5.01,000.00,021.2,020.2,000.0,029.6,022.6,17.8,0002.0,0006.52,0009.82,0006.08
2024-01-24 13:35:00,SystemResetWarning,0826.6,5.01,000.00,021.2,020.2,000.0,029.6,022.5,17.9,0002.1,0006.26,0009.55,0005.85
2024-01-24 13:36:00,SystemResetWarning,0826.5,5.01,000.00,021.2,020.1,000.0,029.6,022.5,17.9,0001.8,0006.01,0009.24,0005.64
2024-01-24 13:37:00,SystemResetWarning,0826.6,4.99,000.00,021.2,020.1,000.0,029.5,022.6,17.5,0001.2,0005.88,0009.09,0005.53
2024-01-24 13:38:00,SystemResetWarning,0826.6,5.00,000.00,021.2,020.1,000.0,029.5,022.6,17.2,0000.9,0005.75,0008.89,0005.41
2024-01-24 13:39:00,SystemResetWarning,0826.6,5.00,000.00,021.2,020.1,000.0,029.5,022.6,17.4,0000.7,0005.66,0008.75,0005.31
2024-01-24 13:40:00,SystemResetWarning,0826.6,5.01,000.00,021.2,020.2,000.0,029.5,022.6,17.7,0001.1,0005.53,0008.39,0005.20
2024-01-24 13:41:00,SystemResetWarning,0826.6,5.00,000.00,021.2,020.2,000.0,029.5,022.6,17.7,0001.1,0005.39,0008.14,0005.07
2024-01-24 13:42:00,SystemResetWarning,0826.6,4.99,000.00,021.2,020.2,000.0,029.5,022.6,17.5,0000.6,0005.27,0007.92,0004.97
2024-01-24 13:43:00,SystemResetWarning,0826.6,5.00,000.00,021.2,020.2,000.0,029.5,022.6,17.4,0000.0,0005.16,0008.00,0004.86
2024-01-24 13:44:00,SystemResetWarning,0826.6,5.00,000.00,021.2,020.2,000.0,029.5,022.6,17.4,0000.0,0005.06,0008.03,0004.77
2024-01-24 13:45:00,SystemResetWarning,0826.6,4.99,000.00,021.2,020.3,000.0,029.5,022.6,17.2,0000.0,0005.02,0008.00,0004.75
2024-01-24 13:46:00,SystemResetWarning,0826.6,5.00,000.00,021.2,020.3,000.0,029.5,022.6,17.2,0000.0,0005.12,0008.16,0004.84
2024-01-24 13:47:00,SystemResetWarning,0826.6,5.00,000.00,021.2,020.3,000.0,029.5,022.6,17.4,0000.0,0005.30,0008.32,0005.01
2024-01-24 13:48:00,SystemResetWarning,0826.6,5.00,000.00,021.2,020.3,000.0,029.5,022.6,17.7,0000.0,0005.51,0008.54,0005.21
2024-01-24 13:49:00,SystemResetWarning,0826.6,5.00,000.00,021.2,020.3,000.0,029.5,022.6,17.8,0000.0,0005.68,0008.71,0005.38
2024-01-24 13:50:00,SystemResetWarning,0826.6,5.00,000.00,021.2,020.3,000.0,029.5,022.6,17.9,0000.0,0005.81,0008.92,0005.51
2024-01-24 13:51:00,SystemResetWarning,0826.6,4.99,000.00,021.2,020.3,000.0,029.5,022.6,17.8,0000.0,0005.87,0009.27,0005.57
2024-01-24 13:52:00,SystemResetWarning,0826.6,5.01,000.00,021.2,020.2,000.0,029.5,022.5,17.7,0000.0,0005.96,0009.42,0005.64
2024-01-24 13:53:00,SystemResetWarning,0826.6,5.01,000.00,021.2,020.2,000.0,029.5,022.5,17.7,0000.0,0006.04,0009.50,0005.74
2024-01-24 13:54:00,SystemResetWarning,0826.6,5.01,000.00,021.2,020.2,000.0,029.5,022.5,17.6,0000.0,0006.20,0009.38,0005.89
2024-01-24 13:55:00,SystemResetWarning,0826.6,5.00,000.00,021.2,020.1,000.0,029.5,022.5,17.5,0001.3,0006.38,0009.37,0006.07
2024-01-24 13:56:00,SystemResetWarning,0826.6,4.99,000.00,021.2,020.1,000.0,029.5,022.5,17.2,0002.0,0006.56,0009.54,0006.23
2024-01-24 13:57:00,SystemResetWarning,0826.6,5.00,000.00,021.2,020.1,000.0,029.5,022.5,17.1,0002.0,0006.64,0009.53,0006.32
2024-01-24 13:58:00,SystemResetWarning,0826.6,5.00,000.00,021.1,020.1,000.0,029.5,022.5,17.3,0001.7,0006.69,0009.63,0006.36
2024-01-24 13:59:00,SystemResetWarning,0826.6,5.01,000.00,021.1,020.1,000.0,029.5,022.5,17.4,0001.4,0006.67,0009.59,0006.35
